View from above orbital plane
|
View from above satellite
|
Ground track
|
The orbit data is extracted from the following two-line orbital elements,
1 00059U 60013B 21020.83652891 .00000095 00000-0 82303-5 0 9996
2 00059 28.2474 181.5531 0189282 310.7292 47.6956 13.52982354975977
Epoch (UTC): | 20 January 2021 20:04:36 |
Eccentricity: | 0.0189282 |
inclination: | 28.2474° |
perigee height: | 920 km |
apogee height: | 1202 km |
right ascension of ascending node: | 181.5531° |
argument of perigee: | 310.7292° |
revolutions per day: | 13.52982354 |
mean anomaly at epoch: | 47.6956° |
orbit number at epoch: | 97597 |
The dashed part of the orbit path shows where the satellite is in the earth's shadow,
|
|